Hauptseite
METAR-TAF:

METAR-TAF

Flughäfen :

Ula, Norwegen

Bohrplattform

Breite: 59-06-39N, Länge: 2-50-45E, Höhe: 0 m

Beobachtung

Neuester Wetterbericht von vor 16 Minuten, um 01:20 UTC
Wind 19 kt aus Süd/Südost
Temperatur 2°C
Luftfeuchtigkeit 64%
Luftdruck 1033 hPa
Sichtweite 10 km oder mehr

METAR: ENLA 250120Z AUTO 16019KT 9999NDV OVC043/// 02/M04 Q1033 W///S4

Zeit: 02:36 (01:36 UTC)


TAF: fehlend

Wetterbeobachtungen und Prognosen von mehr als 4000 Flughäfen (METAR und TAF Bericht).

Die verfügbaren Stationen werden durch gelbe und rote Markierungen auf der Karte dargestellt.

Führen Sie die Maus auf sie, um den Namen der Station zu sehen.

Darauf klicken, um die Beobachtung von Wetterbeobachtungen und Prognosen zu sehen.

Um die Karte zu ändern : klicken Sie auf den grünen Tasten mit einem schwarzen Kreuz Zum Vergrößern, auf den grünen Button mit einem Gedankenstrich zu verkleinern, oder auf die grünen Pfeile für benachbarte Karten.


METAR-TAF: